TimeEST,TemperatureF,Dew PointF,Humidity,Sea Level PressureIn,VisibilityMPH,Wind Direction,Wind SpeedMPH,Gust SpeedMPH,PrecipitationIn,Events,Conditions,WindDirDegrees,DateUTC
12:54 AM,42.1,41.0,96,30.15,0.5,Calm,Calm,-,N/A,Fog,Fog,0,2013-01-12 05:54:00
1:49 AM,42.8,39.2,87,30.15,0.2,Calm,Calm,-,N/A,Fog,Fog,0,2013-01-12 06:49:00
1:54 AM,42.1,39.9,92,30.17,0.2,Calm,Calm,-,N/A,Fog,Fog,0,2013-01-12 06:54:00
2:54 AM,42.8,39.2,87,30.15,0.2,Calm,Calm,-,N/A,Fog,Fog,0,2013-01-12 07:54:00
3:54 AM,42.1,39.9,92,30.15,0.2,Calm,Calm,-,N/A,Fog,Fog,0,2013-01-12 08:54:00
4:41 AM,42.8,39.2,87,30.13,0.5,Calm,Calm,-,N/A,,Overcast,0,2013-01-12 09:41:00
4:48 AM,42.8,39.2,87,30.13,2.0,Calm,Calm,-,N/A,,Mostly Cloudy,0,2013-01-12 09:48:00
4:50 AM,42.8,39.2,87,30.13,3.0,Calm,Calm,-,N/A,,Mostly Cloudy,0,2013-01-12 09:50:00
4:54 AM,42.1,39.9,92,30.14,3.0,Calm,Calm,-,N/A,,Mostly Cloudy,0,2013-01-12 09:54:00
5:06 AM,42.8,39.2,87,30.13,2.5,Calm,Calm,-,N/A,,Scattered Clouds,0,2013-01-12 10:06:00
5:14 AM,42.8,39.2,87,30.13,3.0,Calm,Calm,-,N/A,,Mostly Cloudy,0,2013-01-12 10:14:00
5:54 AM,43.0,41.0,93,30.15,5.0,Calm,Calm,-,N/A,,Overcast,0,2013-01-12 10:54:00
6:54 AM,45.0,42.1,90,30.15,8.0,NE,3.5,-,N/A,,Overcast,40,2013-01-12 11:54:00
7:54 AM,45.0,42.1,90,30.16,6.0,Calm,Calm,-,N/A,,Mostly Cloudy,0,2013-01-12 12:54:00
8:54 AM,48.0,44.1,86,30.17,10.0,Calm,Calm,-,N/A,,Overcast,0,2013-01-12 13:54:00
9:54 AM,53.1,46.0,77,30.18,10.0,Calm,Calm,-,N/A,,Scattered Clouds,0,2013-01-12 14:54:00
10:54 AM,57.9,48.9,72,30.17,10.0,NNE,3.5,-,N/A,,Partly Cloudy,20,2013-01-12 15:54:00
11:54 AM,62.1,52.0,70,30.15,10.0,NE,3.5,-,N/A,,Clear,40,2013-01-12 16:54:00
12:54 PM,66.9,55.0,66,30.12,10.0,Calm,Calm,-,N/A,,Clear,0,2013-01-12 17:54:00
1:54 PM,70.0,55.9,61,30.11,10.0,Calm,Calm,-,N/A,,Mostly Cloudy,0,2013-01-12 18:54:00
2:54 PM,71.1,55.9,59,30.11,10.0,SSE,5.8,-,N/A,,Partly Cloudy,150,2013-01-12 19:54:00
3:54 PM,72.0,55.9,57,30.11,10.0,Calm,Calm,-,N/A,,Partly Cloudy,0,2013-01-12 20:54:00
4:54 PM,71.1,55.9,59,30.11,10.0,SE,3.5,-,N/A,,Partly Cloudy,130,2013-01-12 21:54:00
5:54 PM,66.0,55.0,68,30.11,10.0,ESE,5.8,-,N/A,,Clear,110,2013-01-12 22:54:00
6:54 PM,66.0,55.9,70,30.10,10.0,ESE,9.2,-,N/A,,Clear,110,2013-01-12 23:54:00
7:54 PM,64.0,57.0,78,30.11,10.0,ESE,6.9,-,N/A,,Clear,110,2013-01-13 00:54:00
8:54 PM,63.0,57.0,81,30.10,10.0,ESE,8.1,-,N/A,,Clear,120,2013-01-13 01:54:00
9:54 PM,61.0,55.9,83,30.10,10.0,SE,3.5,-,N/A,,Clear,130,2013-01-13 02:54:00
10:54 PM,59.0,55.9,90,30.10,10.0,South,4.6,-,N/A,,Clear,170,2013-01-13 03:54:00
11:54 PM,57.9,55.0,90,30.09,10.0,SSE,4.6,-,N/A,,Partly Cloudy,150,2013-01-13 04:54:00